Other Public Products
Issued by NWS Grand Forks, ND

Home | Current Version | Previous Version | Graphics & Text | Print | Product List | Glossary On
Versions: 1 2 3 4 5 6 7 8 9 10 11 12 13 14 15 16 17 18 19 20 21 22 23 24 25 26 27 28 29 30 31 32 33 34 35 36 37 38 39 40 41 42 43 44 45 46 47 48 49 50
000
FPUS83 KFGF 041231
OPUFGF
PRAIRIE TO PINES WEATHER ROUNDUP
NATIONAL WEATHER SERVICE EASTERN NORTH DAKOTA/GRAND FORKS ND
700 AM CDT MON MAY 04 2015

 **SATELLITE DATA USED TO AUGMENT SKY COVER AT AUTOMATED STATIONS**
 *****  WEATHER ACROSS EASTERN NORTH DAKOTA  *****

CITY           SKY/WX    TMP DP  RH WIND       PRES   REMARKS
GRAND FORKS    PTCLDY    34  30  85 NW3       30.18R
6HR MIN TEMP:  31; 6HR MAX TEMP:  42;

GRAND FORKS AF CLEAR     33  28  84 W2        30.18R
GRAND CITY NWS   N/A     37 N/A N/A N2          N/A
BUXTON           N/A     40  33  76 CALM        N/A
DEVILS LAKE    CLEAR     36  28  75 CALM      30.18R
6HR MIN TEMP:  32; 6HR MAX TEMP:  41;

FARGO          MOCLDY    40  27  59 N3        30.17R
6HR MIN TEMP:  35; 6HR MAX TEMP:  46;

WAHPETON ARPT  PTSUNNY   39  30  70 CALM      30.18R
$$

 *****  WEATHER ACROSS CENTRAL AND WESTERN NORTH DAKOTA  *****

CITY           SKY/WX    TMP DP  RH WIND       PRES   REMARKS
JAMESTOWN      CLOUDY    32  25  75 N7        30.17R
6HR MIN TEMP:  31; 6HR MAX TEMP:  41;

BISMARCK       CLOUDY    37  28  70 CALM      30.19R
6HR MIN TEMP:  30; 6HR MAX TEMP:  47;

MINOT          CLEAR     35  26  69 S5        30.15R
6HR MIN TEMP:  34; 6HR MAX TEMP:  41; 6HR PCP: TRACE;

MINOT AFB      CLEAR     29  27  93 S2        30.15R
6HR MIN TEMP:  28; 6HR MAX TEMP:  35;

GARRISON         N/A     33  29  85 CALM      30.16S
6HR MIN TEMP:  29; 6HR MAX TEMP:  40;

WILLISTON      CLEAR     32  24  72 N3        30.14R
6HR MIN TEMP:  29; 6HR MAX TEMP:  42; 6HR PCP: TRACE;

DICKINSON      CLOUDY    33  25  72 SE7       30.15R
6HR MIN TEMP:  33; 6HR MAX TEMP:  44;

HETTINGER      CLOUDY    40  28  62 E5        30.17R
6HR MIN TEMP:  28; 6HR MAX TEMP:  41;

$$

 *****  OTHER OBSERVATIONS NORTHEAST NORTH DAKOTA  *****

CITY           SKY/WX    TMP DP  RH WIND       PRES   REMARKS
WALHALLA       FAIR      37  37 100 CALM      30.18R
LANGDON        FAIR      32  30  93 CALM      30.18R
CAVALIER       FAIR      37  34  87 SW5       30.18R FOG
GRAFTON        FAIR      37  37 100 CALM      30.20R
CANDO          FAIR      32  30  93 CALM      30.19R
FORT TOTTEN      N/A     38  34  86 CALM      29.95S
ROLLA          NOT AVBL
RUGBY          NOT AVBL
 ***** THE ABOVE OBSERVATIONS ARE NON NWS ARE NOT QUALITY
        CONTROLLED AND MAY MIS-REPORT RAIN FOR SNOW...
$$

 *****  OTHER OBSERVATIONS SOUTHEAST NORTH DAKOTA *****

CITY           SKY/WX    TMP DP  RH WIND       PRES   REMARKS
COOPERSTOWN    NOT AVBL
VALLEY CITY    FAIR      36  36 100 N6        30.18R
OAKES            N/A     37  32  81 N5        30.18R
GWINNER        SUNNY     46  28  49 N7        30.19R
SHEYENNE NWR     N/A     32  28  84 CALM      29.95S
BUFFALO        NOT AVBL
WYNDMERE       NOT AVBL
 ***** THE ABOVE OBSERVATIONS ARE NON NWS ARE NOT QUALITY
       CONTROLLED AND MAY MIS-REPORT RAIN FOR SNOW...
$$

  *****  WEATHER ACROSS NORTHERN MINNESOTA  *****

CITY           SKY/WX    TMP DP  RH WIND       PRES   REMARKS
FLAG ISLAND    CLEAR     39  37  93 NW8       30.16R
WARROAD        CLEAR     37  34  87 W3        30.18R
ROSEAU         CLEAR     36  30  80 CALM      30.18R
HALLOCK        CLEAR     36  30  80 CALM      30.18R
THF RVR FALLS  CLEAR     39  34  81 CALM      30.19R
6HR MIN TEMP:  37; 6HR MAX TEMP:  46;

HALSTAD          N/A     41  28  60 NE2         N/A
FOSSTON        NOT AVBL
BAUDETTE       CLEAR     37  36  96 W6        30.16R
6HR MIN TEMP:  34; 6HR MAX TEMP:  40;

WASKISH        CLEAR     45  39  81 CALM      30.17R
CROOKSTON      FAIR      45  36  70 E5        30.19R
$$
  *****  WEATHER ACROSS CENTRAL AND WEST MINNESOTA  *****

CITY           SKY/WX    TMP DP  RH WIND       PRES   REMARKS
BEMIDJI        CLEAR     36  33  88 CALM      30.17R
PARK RAPIDS    CLEAR     39  34  82 NW3       30.16R
6HR MIN TEMP:  35; 6HR MAX TEMP:  50;

WADENA         CLEAR     37  34  87 CALM      30.17R
DETROIT LAKES  PTCLDY    45  37  76 NE3       30.18R
MOORHEAD       MOCLDY    41  28  60 NE3       30.18R
FERGUS FALLS   PTCLDY    45  34  65 CALM      30.19R
ELBOW LAKE     FAIR      47  35  64 E3        30.17R
6HR MIN TEMP:  44; 6HR MAX TEMP:  50;

MORRIS MN      CLEAR     41  30  65 NW5       30.17R
STAPLES        CLEAR     39  36  87 CALM      30.17R
WHEATON        PTCLDY    41  30  65 CALM      30.20R
$$
  *****  WEATHER ELSEWHERE ACROSS MINNESOTA  *****

CITY           SKY/WX    TMP DP  RH WIND       PRES   REMARKS
DULUTH         SUNNY     45  35  68 NW8       30.09R
6HR MIN TEMP:  43; 6HR MAX TEMP:  52;

INTRNTL FALLS  SUNNY     38  35  89 NW6       30.13R
6HR MIN TEMP:  30; 6HR MAX TEMP:  38;

ELY            SUNNY     41  36  81 NW6       30.11R
CLOQUET        SUNNY     43  36  75 NW6       30.12R
BRAINERD       CLEAR     39  34  82 CALM      30.16R
6HR MIN TEMP:  35; 6HR MAX TEMP:  48;

HIBBING        SUNNY     36  32  85 NW3       30.12R
6HR MIN TEMP:  32; 6HR MAX TEMP:  43;

ALEXANDRIA     CLEAR     47  32  56 NE3       30.17R
6HR MIN TEMP:  44; 6HR MAX TEMP:  50;

SAINT CLOUD    CLEAR     41  33  73 CALM      30.15R
6HR MIN TEMP:  37; 6HR MAX TEMP:  50;

MINNEAPOLIS    PTCLDY    52  36  54 N6        30.12R
6HR MIN TEMP:  50; 6HR MAX TEMP:  58;

$$

  *****  WEATHER ACROSS SOUTH DAKOTA  *****

CITY           SKY/WX    TMP DP  RH WIND       PRES   REMARKS
SIOUX FALLS    MOCLDY    46  29  51 N10       30.11R
6HR MIN TEMP:  45; 6HR MAX TEMP:  54;

BROOKINGS      CLEAR     46  28  49 NE7       30.16R
WATERTOWN      CLEAR     42  26  53 CALM      30.16R
6HR MIN TEMP:  36; 6HR MAX TEMP:  44;

HURON          PTCLDY    34  26  72 NW5       30.15S
6HR MIN TEMP:  31; 6HR MAX TEMP:  49;

SISSETON         N/A     41  27  57 NW5       30.17R
ABERDEEN       MOCLDY    31  24  75 SW3       30.19R
6HR MIN TEMP:  28; 6HR MAX TEMP:  44;

MITCHELL       CLEAR     41  33  73 N7        30.13S
PIERRE         MOCLDY    43  25  49 NE3       30.15R
6HR MIN TEMP:  41; 6HR MAX TEMP:  46;

MOBRIDGE       CLOUDY    38  28  67 CALM      30.16R
RAPID CITY     LGT RAIN  48  38  68 SW6       30.17R
6HR MIN TEMP:  46; 6HR MAX TEMP:  52; 6HR PCP:  0.03;

$$

  *****  SOME WEATHER IN NEARBY STATES *****

CITY           SKY/WX    TMP DP  RH WIND       PRES   REMARKS
GLASGOW MT     CLEAR     39  23  52 E13       30.06F
6HR MIN TEMP:  38; 6HR MAX TEMP:  43;

GREAT FALLS MT CLEAR     36  27  69 CALM      29.94S
6HR MIN TEMP:  33; 6HR MAX TEMP:  48;

CHEYENNE WY    CLOUDY    45  39  79 S10       30.12R
6HR MIN TEMP:  44; 6HR MAX TEMP:  50; 6HR PCP: TRACE;

SCOTTSBLUFF NE CLOUDY    51  37  58 E9        30.11R
6HR MIN TEMP:  50; 6HR MAX TEMP:  54;

OMAHA NE       CLOUDY    59  50  72 NW3       30.05R
6HR MIN TEMP:  57; 6HR MAX TEMP:  67;

DES MOINES IA  CLOUDY    62  55  77 N12       29.98R
6HR MIN TEMP:  61; 6HR MAX TEMP:  71;

DAVENPORT IA   CLOUDY    60  57  89 S9        30.00R
6HR MIN TEMP:  59; 6HR MAX TEMP:  61; 6HR PCP:  0.48;

CHICAGO IL     CLOUDY    59  55  87 S3        29.98R
6HR MIN TEMP:  58; 6HR MAX TEMP:  68; 6HR PCP: TRACE;

EAU CLAIRE WI  MOSUNNY   53  39  59 CALM      30.07R
6HR MIN TEMP:  50; 6HR MAX TEMP:  55;

LA CROSSE WI   PTSUNNY   58  53  84 NW10      30.05R
6HR MIN TEMP:  58; 6HR MAX TEMP:  61;

$$

  *****  SOME NATIONAL WEATHER *****

CITY           SKY/WX    TMP DP  RH WIND       PRES   REMARKS


USA.gov is the U.S. government's official web portal to all federal, state and local government web resources and services.